Regional Weather Roundup
Issued by NWS

Home | Current Version | Previous Version | Graphics & Text | Print | Product List | Glossary On
Versions: 1 2 3 4 5 6 7 8 9 10 11 12 13 14 15 16 17 18 19 20 21 22 23 24 25 26 27 28 29 30 31 32 33 34 35 36 37 38 39 40 41 42 43 44 45 46 47 48 49 50
000
ASUS43 KMKX 261711
RWRWI

WISCONSIN REGIONAL WEATHER ROUNDUP
NATIONAL WEATHER SERVICE MILWAUKEE/SULLIVAN WI
1200 PM CDT THU MAY 26 2016

NOTE: "FAIR" INDICATES FEW OR NO CLOUDS BELOW 12,000 FEET WITH NO
SIGNIFICANT WEATHER AND/OR OBSTRUCTIONS TO VISIBILITY.

WIZ001-002-006>008-014>016-023>028-261800-
NORTHWEST WISCONSIN

CITY           SKY/WX    TMP DP  RH WIND       PRES   REMARKS
SUPERIOR ARPT  CLOUDY    47  47  99 NE7       29.82F FOG
ASHLAND        CLOUDY    52  52 100 E5        29.82S FOG
HAYWARD        CLOUDY    69  60  73 SW7       29.79F
SIREN          SUNNY     73  56  54 SW5       29.78S
CUMBERLAND     SUNNY     70  54  56 W6        29.80S
RICE LAKE      SUNNY     72  58  60 SW6       29.82R
CHETEK         MOSUNNY   72  59  63 W3        29.81R
LADYSMITH      SUNNY     71  61  70 S3        29.82F
EAU CLAIRE     SUNNY     73  58  59 W8        29.81S
MENOMONIE      SUNNY     74  64  71 S8        29.81S
NEW RICHMOND   SUNNY     73  57  56 SW8       29.80F
OSCEOLA        SUNNY     74  58  56 SW9       29.82S
$$

WIZ003>005-009-010-017-018-261800-
NORTH CENTRAL WISCONSIN

CITY           SKY/WX    TMP DP  RH WIND       PRES   REMARKS
MANITOWISH WTR NOT AVBL
ARBOR VITAE    LGT RAIN  63  61  93 CALM      29.83S
WOODRUFF       LGT RAIN  63  61  93 CALM      29.83S
RHINELANDER    LGT RAIN  63  59  87 CALM      29.83R
EAGLE RIVER    RAIN      63  62  95 NW3       29.83S
LAND O LAKES   RAIN      62  59  91 NW3       29.85R
PHILLIPS       CLOUDY    66  60  82 CALM      29.80F
TOMAHAWK       LGT RAIN  62  59  91 W5        29.82R
MEDFORD        MOSUNNY   67  61  81 W12       29.83R
MERRILL        CLOUDY    64  63  94 W3        29.83R
$$

WIZ029-030-035-036-043>047-261800-
CENTRAL WISCONSIN

CITY           SKY/WX    TMP DP  RH WIND       PRES   REMARKS
WAUSAU         PTSUNNY   70  32  24 SW6       29.81R
MOSINEE        PTSUNNY   68  64  88 S10       29.84R
MARSHFIELD     MOSUNNY   72  61  68 W14       29.83R
STEVENS POINT  PTSUNNY   69  61  76 S13       29.83S
WAUPACA        CLOUDY    69  65  87 SW10      29.84R
WAUTOMA        CLOUDY    73  65  75 SW16      29.84F
WISC RAPIDS    MOSUNNY   74  61  63 SW13G18   29.85S
CAMP DOUGLAS   MOSUNNY   75  73  94 SW16      29.85S
$$

WIZ011>013-019>022-031-037>040-048>050-261800-
NORTHEAST WISCONSIN

CITY           SKY/WX    TMP DP  RH WIND       PRES   REMARKS
ANTIGO         CLOUDY    65  62  89 CALM      29.84R
SHAWANO        PTSUNNY   74  65  73 CALM      29.81R
OCONTO         PTSUNNY   69  69 100 SE6       29.78F
STURGEON BAY   NOT AVBL
GREEN BAY      SUNNY     77  65  66 S17       29.78F
MANITOWOC      MOSUNNY   70  66  87 S16       29.83R
APPLETON       PTSUNNY   73  63  68 SW12G20   29.82R
CLINTONVILLE   CLOUDY    70  61  73 SW15G22   29.83R
OSHKOSH        SUNNY     77  65  66 SW13G23   29.82R
$$

WIZ032>034-041-042-053>061-261800-
SOUTHWEST WISCONSIN

CITY           SKY/WX    TMP DP  RH WIND       PRES   REMARKS
LA CROSSE      SUNNY     75  59  57 W12       29.85S
SPARTA         MOSUNNY   74  61  64 SW6       29.87R
VIROQUA        SUNNY     72  59  64 SW9       29.90S
BOSCOBEL       SUNNY     79  61  53 SW12      29.87F HX  80
PRAIRIE DU CHI MOSUNNY   76  58  53 S6        29.88S
PLATTEVILLE    SUNNY     79  57  47 SW15      29.90S HX  80
$$

WIZ056-057-062-063-064-067-068-261800-
SOUTH CENTRAL WISCONSIN

CITY           SKY/WX    TMP DP  RH WIND       PRES   REMARKS
REEDSBURG      MOSUNNY   75  63  66 SW8       29.87R
BARABOO/DELLS  PTSUNNY   74  62  65 SW15      29.87R
LONE ROCK      CLOUDY    80  58  46 W12       29.87S HX  80
MINERAL POINT  SUNNY     79  59  50 SW12      29.89F HX  80
MADISON        PTSUNNY   75  62  64 SW9       29.87S
MIDDLETON      SUNNY     77  62  58 SW16      29.88S
WATERTOWN      CLOUDY    76  64  66 S13       29.86S
MONROE         CLOUDY    77  55  47 SW16      29.90S
JANESVILLE     MOSUNNY   77  63  61 SW8       29.89
$$

WIZ051-052-058>065-066-070>072-261800-
SOUTHEAST WISCONSIN

CITY           SKY/WX    TMP DP  RH WIND       PRES   REMARKS
MILWAUKEE      PTSUNNY   75  64  68 SW15      29.87F
WAUKESHA       SUNNY     72  64  78 S9G17     29.88F
MILWAUKEE/TIMM SUNNY     75  63  64 S10       29.87F
RACINE         MOSUNNY   77  65  66 S10       29.90F
BURLINGTON     CLOUDY    74  65  72 SW8       29.89S
KENOSHA        MOSUNNY   78  68  71 S13       29.90S HX  80
FOND DU LAC    SUNNY     77  65  66 SW15G22   29.82S
SHEBOYGAN      MOSUNNY   76  66  71 S14       29.83F
WEST BEND      MOSUNNY   77  61  57 SW15      29.85S
JUNEAU         SUNNY     74  64  69 S16G22    29.87S
$$

LSZ147-162-261800-
LAKE SUPERIOR

STATION/POSITION TIME  TEMP    WIND        PRES    WAVE
                       AIR SEA DIR/SP/G            HT/PER
                 (UTC) (F)     (DEG/KT/KT) (MB)    (FT/S)
W MID LAKE BUOY  1650   40 38   20/  6/  6 1010.7R   1/ 3
DEVILS ISLAND    1700   46     120/  4/  7 1010.1R
SAXON HARBOR     1620   46     340/  5/ 11 1009.8R
$$

LMZ867-665-643>646-261800-
LAKE MICHIGAN

STATION/POSITION TIME  TEMP    WIND        PRES    WAVE
                       AIR SEA DIR/SP/G            HT/PER
                 (UTC) (F)     (DEG/KT/KT) (MB)    (FT/S)
CHAMBERS ISLAND  1600   63     180/  4/  9 1010.8S
N MID LAKE BUOY  1650   48 45  180/ 12/ 14 1010.5R   1/ 3
NORTHPORT PIER   1600   62     170/  3/  9 1010.2F
SISTER BAY       1619   68     170/  9/ 11   N/A
ALGOMA LAKESHORE 1617             CALM       N/A
KEWAUNEE LAKESHO 1600   51      40/  3/  5 1009.5F
SHEBOYGAN LAKESH 1700   62     180/ 20/ 21 1010.3F
PORT WASHINGTON  1600   63     200/  4/  9 1011.9
S MID LAKE BUOY  1650   54 49  170/ 12/ 14 1012.5F   1/ 3
KENOSHA   LAKESH 1700   59     170/ 13/ 15 1012.2F
$$

TC  - TEMPERATURE IN CELSIUS
VSB - VISIBILITY IN STATUTE MILES
WCI - WIND CHILL INDEX
HX  - HEAT INDEX





USA.gov is the U.S. government's official web portal to all federal, state and local government web resources and services.